FW0475 Weather Reports


Display with metric or nautical units.
time (UTC)temp
F
wind
direction
speed
MPH
gust
MPH
rain 1hr
in
rain 24hr
in
rain mn
in
humidity
%
barometer
mb
20260904161836 71 67 136.0 136.0 0.01 0.32 0.32 86 1015.9
20260904161319 71 65 136.0 136.0 0.01 0.32 0.32 86 1015.8
20260904160820 71 68 136.0 137.0 0.01 0.32 0.32 86 1016.0
20260904160329 71 69 136.0 137.0 0.01 0.32 0.32 86 1015.9
20260904155830 71 67 136.0 137.0 0.01 0.32 0.32 86 1015.8
20260904155312 71 68 136.0 137.0 0.01 0.32 0.32 86 1015.7
20260904154815 71 65 136.0 137.0 0.00 0.31 0.31 86 1015.8
20260904154325 71 75 136.0 137.0 0.00 0.31 0.31 86 1015.9
20260904153854 71 67 136.0 136.0 0.00 0.31 0.31 86 1016.0
20260904153315 71 12 135.0 136.0 0.00 0.31 0.31 86 1015.6
20260904152815 71 360 137.0 136.0 0.00 0.31 0.31 86 1015.4
20260904152317 71 161 137.0 136.0 0.00 0.31 0.31 86 1014.7
20260904151826 71 211 134.0 137.0 0.00 0.31 0.31 86 1015.1
20260904151328 71 48 135.0 137.0 0.00 0.31 0.31 86 1015.5
20260904150832 71 360 135.0 144.0 0.00 0.31 0.31 86 1015.5
20260904150314 71 166 132.0 155.0 0.00 0.31 0.31 86 1015.8
20260904145816 70 360 131.0 144.0 0.00 0.31 0.31 86 1015.5
20260904145325 70 144 137.0 139.0 0.00 0.31 0.31 86 1016.0
20260904144826 70 212 134.0 138.0 0.00 0.31 0.31 86 1015.9
20260904144356 70 131 134.0 151.0 0.00 0.31 0.31 86 1015.8
20260904143816 70 195 136.0 136.0 0.00 0.31 0.31 86 1015.9
20260904143317 70 127 140.0 136.0 0.00 0.31 0.31 86 1015.8
20260904142826 70 35 135.0 136.0 0.00 0.31 0.31 86 1016.0
20260904142327 70 39 136.0 136.0 0.00 0.31 0.31 86 1016.1
20260904141829 70 297 135.0 138.0 0.00 0.31 0.31 86 1015.8
20260904141339 70 334 135.0 136.0 0.00 0.31 0.31 86 1015.0
20260904140820 70 126 137.0 138.0 0.00 0.31 0.31 86 1014.6
20260904140321 70 360 135.0 136.0 0.00 0.31 0.31 86 1015.2
20260904135851 70 190 133.0 136.0 0.00 0.31 0.31 86 1015.5
20260904135312 71 101 138.0 139.0 0.01 0.31 0.31 86 1015.8
20260904134813 71 215 136.0 136.0 0.02 0.31 0.31 86 1016.3
20260904134322 71 360 144.0 143.0 0.02 0.31 0.31 86 1016.4
20260904133823 71 80 137.0 136.0 0.03 0.31 0.31 86 1016.0
20260904133332 71 44 135.0 136.0 0.04 0.31 0.31 86 1016.4
20260904132815 71 42 135.0 136.0 0.04 0.31 0.31 86 1016.5
20260904132336 71 220 133.0 136.0 0.04 0.31 0.31 86 1016.8
20260904131824 71 221 133.0 136.0 0.04 0.31 0.31 86 1016.9
20260904131327 71 225 133.0 136.0 0.05 0.31 0.31 86 1016.9
20260904130836 72 222 134.0 136.0 0.06 0.31 0.31 85 1016.9
20260904130314 72 349 136.0 136.0 0.06 0.31 0.31 86 1016.9
20260904125814 72 348 136.0 134.0 0.06 0.30 0.30 86 1016.8
20260904125344 72 360 136.0 136.0 0.06 0.30 0.30 86 1016.9
20260904124825 72 360 133.0 139.0 0.06 0.29 0.29 86 1017.0
20260904124334 72 284 137.0 139.0 0.08 0.29 0.29 86 1016.7
20260904123814 72 291 136.0 138.0 0.09 0.28 0.28 86 1016.7
20260904123315 72 45 135.0 136.0 0.09 0.27 0.27 86 1016.6
20260904122816 72 46 135.0 136.0 0.10 0.27 0.27 86 1017.0
20260904122324 72 48 135.0 136.0 0.10 0.27 0.27 86 1017.3
20260904121825 72 47 135.0 136.0 0.10 0.27 0.27 86 1017.3
20260904121335 72 46 135.0 136.0 0.10 0.26 0.26 86 1017.2
20260904120813 72 45 135.0 136.0 0.10 0.25 0.25 86 1017.3
20260904120315 72 45 135.0 136.0 0.10 0.25 0.25 86 1017.1
20260904115823 72 46 135.0 136.0 0.10 0.24 0.24 86 1017.2
20260904115325 72 44 135.0 136.0 0.11 0.24 0.24 86 1017.3
20260904114826 72 46 135.0 136.0 0.10 0.23 0.23 86 1017.3
20260904114336 72 44 135.0 136.0 0.10 0.21 0.21 86 1017.1
20260904113817 72 45 135.0 137.0 0.08 0.19 0.19 86 1016.7
20260904113318 72 30 136.0 137.0 0.08 0.18 0.18 86 1016.8
20260904112827 72 29 136.0 137.0 0.08 0.17 0.17 86 1016.9
20260904112329 72 355 136.0 137.0 0.08 0.17 0.17 86 1016.5
20260904111830 73 301 136.0 137.0 0.08 0.17 0.17 86 1016.3
20260904111313 73 360 135.0 137.0 0.08 0.16 0.16 86 1016.1
20260904110820 73 65 136.0 137.0 0.09 0.15 0.15 86 1016.3
20260904110322 73 74 136.0 137.0 0.10 0.15 0.15 86 1016.3
20260904105831 73 78 136.0 137.0 0.10 0.14 0.14 86 1016.4
20260904105312 73 10 135.0 137.0 0.09 0.13 0.13 86 1016.7
20260904104835 73 9 135.0 136.0 0.09 0.13 0.13 86 1016.6
20260904104323 73 340 135.0 139.0 0.07 0.11 0.11 86 1016.7
20260904103824 73 106 138.0 140.0 0.07 0.11 0.11 86 1016.7
20260904103333 73 360 133.0 139.0 0.06 0.10 0.10 86 1016.5
20260904102837 73 360 133.0 141.0 0.06 0.09 0.09 86 1016.2
20260904102345 73 360 136.0 141.0 0.06 0.09 0.09 86 1016.0
20260904101825 73 61 135.0 139.0 0.06 0.09 0.09 86 1015.0
20260904101314 73 265 137.0 139.0 0.05 0.07 0.07 86 1015.7
20260904100816 73 360 137.0 138.0 0.04 0.05 0.05 86 1016.1
20260904100318 72 360 136.0 138.0 0.04 0.05 0.05 86 1016.5
20260904095827 72 246 137.0 139.0 0.03 0.04 0.04 86 1016.1
20260904095349 72 311 136.0 139.0 0.03 0.04 0.04 86 1015.8
20260904094818 72 91 137.0 137.0 0.03 0.04 0.04 86 1016.0
20260904094320 72 67 136.0 137.0 0.03 0.04 0.04 86 1015.7
20260904093821 72 69 136.0 137.0 0.03 0.04 0.04 86 1015.1
20260904093330 72 68 136.0 137.0 0.03 0.04 0.04 86 1015.6
20260904092812 72 68 136.0 137.0 0.02 0.03 0.03 85 1015.6
20260904092314 72 70 136.0 137.0 0.02 0.03 0.03 85 1015.2
20260904091842 72 75 136.0 137.0 0.02 0.03 0.03 85 1015.6
20260904091325 72 74 135.0 137.0 0.02 0.02 0.02 85 1016.0
20260904090832 72 71 136.0 136.0 0.01 0.01 0.01 85 1015.6
20260904090313 72 66 136.0 136.0 0.01 0.01 0.01 85 1015.2
20260904085815 72 69 136.0 137.0 0.01 0.01 0.01 85 1015.1
20260904085317 72 70 136.0 137.0 0.01 0.01 0.01 85 1015.1
20260904084825 72 72 136.0 137.0 0.01 0.01 0.01 85 1014.9
20260904084328 72 73 136.0 137.0 0.01 0.01 0.01 85 1014.6
20260904083836 72 68 136.0 137.0 0.01 0.01 0.01 85 1014.2
20260904083317 72 76 136.0 137.0 0.01 0.01 0.01 85 1013.9
20260904082819 72 73 136.0 137.0 0.01 0.01 0.01 85 1014.4
20260904082349 72 69 136.0 136.0 0.01 0.01 0.01 85 1015.0
20260904081857 72 67 136.0 136.0 0.01 0.01 0.01 85 1015.2
20260904081318 72 71 136.0 137.0 0.00 0.00 0.00 85 1014.9
20260904080819 72 71 136.0 137.0 0.00 0.00 0.00 85 1014.8
20260904080321 72 72 2.0 3.0 0.00 0.00 0.00 85 1014.6
20260904075829 72 70 2.0 3.0 0.00 0.00 0.00 85 1014.8
20260904075311 72 73 1.0 4.0 0.00 0.00 0.00 85 1014.8
20260904074813 72 73 1.0 4.0 0.00 0.00 0.00 85 1014.6
20260904074343 72 73 1.0 2.0 0.00 0.00 0.00 85 1014.6
20260904073823 72 76 0.0 3.0 0.00 0.00 0.00 85 1014.6
20260904073332 72 76 1.0 3.0 0.00 0.00 0.00 85 1014.7
20260904072813 72 72 1.0 3.0 0.00 0.00 0.00 85 1014.5
20260904072315 72 73 1.0 2.0 0.00 0.00 0.00 85 1014.8
20260904071825 72 73 1.0 2.0 0.00 0.00 0.00 84 1014.7
20260904071326 72 71 1.0 2.0 0.00 0.00 0.00 84 1014.9
20260904070827 72 71 0.0 3.0 0.00 0.00 0.00 84 1015.2
20260904070336 72 73 1.0 3.0 0.00 0.00 0.00 84 1015.4
20260904065839 72 64 2.0 2.0 0.00 0.00 0.00 84 1015.6
20260904065319 72 61 1.0 3.0 0.00 0.00 0.00 84 1015.7
20260904064827 72 71 1.0 3.0 0.00 0.00 0.00 84 1015.5
20260904064330 73 71 1.0 3.0 0.00 0.00 0.00 84 1015.6
20260904063838 73 71 1.0 3.0 0.00 0.00 0.00 84 1015.7
20260904063319 73 71 0.0 3.0 0.00 0.00 0.00 84 1015.7
20260904062822 73 69 1.0 3.0 0.00 0.00 0.00 84 1015.9
20260904062330 73 69 1.0 3.0 0.00 0.00 0.00 84 1015.9
20260904061838 73 68 1.0 2.0 0.00 0.00 0.00 84 1015.9
20260904061340 73 61 1.0 3.0 0.00 0.00 0.00 84 1015.7
20260904060820 73 73 1.0 3.0 0.00 0.00 0.00 84 1015.1
20260904060329 73 71 1.0 4.0 0.00 0.00 0.00 84 1015.1
20260904055830 73 71 3.0 4.0 0.00 0.00 0.00 84 1015.3
20260904055312 73 70 2.0 4.0 0.00 0.00 0.00 84 1015.3
20260904054821 73 71 1.0 4.0 0.00 0.00 0.00 84 1015.7
20260904054323 73 73 2.0 4.0 0.00 0.00 0.00 84 1015.8
20260904053825 73 47 1.0 2.0 0.00 0.00 0.00 84 1016.2
20260904053333 73 47 0.0 2.0 0.00 0.00 0.00 84 1016.1
20260904052836 74 34 1.0 2.0 0.00 0.00 0.00 84 1016.1
20260904052325 74 14 0.0 1.0 0.00 0.00 0.00 84 1016.3
20260904051826 74 13 0.0 2.0 0.00 0.00 0.00 84 1016.5
20260904051329 74 11 0.0 2.0 0.00 0.00 0.00 84 1016.6
20260904050837 74 13 0.0 2.0 0.00 0.00 0.00 84 1016.7
20260904050317 74 360 0.0 136.0 0.00 0.00 0.00 84 1016.5
20260904045819 74 355 20.0 136.0 0.00 0.00 0.00 84 1016.5
20260904045328 74 355 1.0 3.0 0.00 0.00 0.00 84 1016.3
20260904044827 74 5 0.0 3.0 0.00 0.00 0.00 84 1016.1
20260904044336 73 360 0.0 2.0 0.00 0.00 0.00 83 1015.9
20260904043819 73 360 0.0 2.0 0.00 0.00 0.00 83 1015.9
20260904043319 73 360 0.0 2.0 0.00 0.00 0.00 83 1015.9
20260904042824 73 360 0.0 1.0 0.00 0.00 0.00 83 1016.0
20260904042330 73 271 0.0 2.0 0.00 0.00 0.00 82 1015.8
20260904041833 74 272 0.0 2.0 0.00 0.00 0.00 82 1016.1
20260904041321 74 360 1.0 2.0 0.00 0.00 0.00 82 1016.1
20260904040843 74 273 0.0 0.0 0.00 0.00 0.00 82 1016.4
20260904040331 74 272 0.0 0.0 0.00 0.00 0.00 82 1016.5
20260904035813 74 274 0.0 0.0 0.00 0.00 0.00 82 1016.6
20260904035315 74 273 0.0 0.0 0.00 0.00 0.00 82 1016.8
20260904034824 74 360 0.0 0.0 0.00 0.00 0.00 82 1016.7
20260904034327 74 360 0.0 1.0 0.00 0.00 0.00 82 1016.5
20260904033855 74 273 0.0 1.0 0.00 0.00 0.00 82 1016.6
20260904033314 74 360 0.0 1.0 0.00 0.00 0.00 82 1016.6
20260904032823 74 272 0.0 1.0 0.00 0.00 0.00 82 1016.7
20260904032324 74 360 0.0 1.0 0.00 0.00 0.00 82 1016.6
20260904031825 74 360 0.0 1.0 0.00 0.00 0.00 82 1016.7
20260904031334 74 246 0.0 1.0 0.00 0.00 0.00 82 1016.7
20260904030817 74 242 0.0 1.0 0.00 0.00 0.00 82 1016.7
20260904030340 74 360 0.0 1.0 0.00 0.00 0.00 82 1016.6
20260904025827 74 360 0.0 1.0 0.00 0.00 0.00 82 1016.6
20260904025329 74 234 0.0 1.0 0.00 0.00 0.00 81 1016.7
20260904024837 74 360 0.0 1.0 0.00 0.00 0.00 81 1016.7
20260904024320 74 236 0.0 1.0 0.00 0.00 0.00 81 1016.8
20260904023820 74 235 0.0 2.0 0.00 0.00 0.00 81 1016.8
20260904023322 74 234 0.0 2.0 0.00 0.00 0.00 81 1016.7
20260904022831 75 281 0.0 1.0 0.00 0.00 0.00 81 1016.7
20260904022313 75 275 0.0 1.0 0.00 0.00 0.00 81 1016.4
20260904021816 75 275 0.0 1.0 0.00 0.00 0.00 81 1016.3
20260904021326 75 360 0.0 1.0 0.00 0.00 0.00 81 1016.2
20260904020827 75 248 0.0 1.0 0.00 0.00 0.00 81 1016.1
20260904020329 75 245 0.0 1.0 0.00 0.00 0.00 81 1016.1
20260904015839 75 360 0.0 1.0 0.00 0.00 0.00 80 1016.1
20260904015319 75 246 0.0 2.0 0.00 0.00 0.00 81 1016.1
20260904014828 75 245 0.0 2.0 0.00 0.00 0.00 81 1016.0
20260904014331 75 244 1.0 2.0 0.00 0.00 0.00 80 1016.1
20260904013812 75 229 1.0 2.0 0.00 0.00 0.00 80 1016.0
20260904013315 75 239 0.0 2.0 0.00 0.00 0.00 80 1016.0
20260904012845 75 245 0.0 2.0 0.00 0.00 0.00 80 1015.9
20260904012333 75 299 1.0 3.0 0.00 0.00 0.00 80 1016.0
20260904011816 75 219 1.0 3.0 0.00 0.00 0.00 80 1015.9
20260904011318 75 213 1.0 3.0 0.00 0.00 0.00 80 1015.8
20260904010819 75 217 1.0 3.0 0.00 0.00 0.00 79 1015.7
20260904010349 75 214 0.0 3.0 0.00 0.00 0.00 79 1015.6
20260904005836 75 215 1.0 3.0 0.00 0.00 0.00 79 1015.6
20260904005338 75 213 1.0 3.0 0.00 0.00 0.00 79 1015.5
20260904004819 75 125 0.0 2.0 0.00 0.00 0.00 78 1015.3
20260904004329 75 170 0.0 2.0 0.00 0.00 0.00 78 1015.2
20260904003830 75 81 0.0 2.0 0.00 0.00 0.00 77 1015.1
20260904003311 75 101 1.0 2.0 0.00 0.00 0.00 77 1015.1
20260904002840 75 212 0.0 2.0 0.00 0.00 0.00 77 1015.1
20260904002320 75 47 1.0 2.0 0.00 0.00 0.00 77 1015.1
20260904001829 75 12 0.0 2.0 0.00 0.00 0.00 76 1015.2
20260904001312 75 86 0.0 2.0 0.00 0.00 0.00 76 1015.2
20260904000813 75 86 0.0 2.0 0.00 0.00 0.00 76 1015.1
20260904000315 76 86 0.0 2.0 0.00 0.00 0.00 77 1015.2
20260903235823 76 86 1.0 2.0 0.00 0.00 0.00 77 1015.3
20260903235352 76 86 1.0 2.0 0.00 0.00 0.00 77 1015.2
20260903234813 77 109 0.0 2.0 0.00 0.00 0.00 77 1015.1
20260903234316 77 109 1.0 1.0 0.00 0.00 0.00 77 1015.2
20260903233842 77 109 0.0 2.0 0.00 0.00 0.00 77 1015.2
20260903233350 77 109 0.0 2.0 0.00 0.00 0.00 77 1015.0
20260903232811 77 189 0.0 1.0 0.00 0.00 0.00 77 1015.2
20260903232312 78 189 0.0 1.0 0.00 0.00 0.00 76 1015.2
20260903231814 78 188 0.0 3.0 0.00 0.00 0.00 76 1015.1
20260903231324 78 190 0.0 4.0 0.00 0.00 0.00 76 1014.9
20260903230824 78 225 2.0 4.0 0.00 0.00 0.00 75 1015.1
20260903230334 78 203 2.0 4.0 0.00 0.00 0.00 75 1015.1
20260903225814 78 217 1.0 3.0 0.00 0.00 0.00 75 1014.9
20260903225315 78 229 1.0 2.0 0.00 0.00 0.00 75 1014.9
20260903224817 78 244 0.0 3.0 0.00 0.00 0.00 74 1014.6
20260903224326 78 215 1.0 3.0 0.00 0.00 0.00 75 1014.7
20260903223857 78 294 1.0 3.0 0.00 0.00 0.00 73 1014.9
20260903223316 78 52 0.0 1.0 0.00 0.00 0.00 71 1014.9
20260903222818 78 52 0.0 2.0 0.00 0.00 0.00 70 1014.9
20260903222320 78 53 0.0 2.0 0.00 0.00 0.00 70 1014.7
20260903221829 79 80 1.0 2.0 0.00 0.00 0.00 71 1014.6
20260903221312 80 182 0.0 3.0 0.00 0.00 0.00 70 1014.9
20260903220814 80 182 1.0 3.0 0.00 0.00 0.00 70 1014.9
20260903220322 81 250 0.0 3.0 0.00 0.00 0.00 70 1014.7
20260903215824 81 213 0.0 3.0 0.00 0.00 0.00 68 1014.6
20260903215354 81 206 2.0 3.0 0.00 0.00 0.00 69 1014.6
20260903214815 82 214 0.0 1.0 0.00 0.00 0.00 71 1014.6
20260903214319 81 213 0.0 2.0 0.00 0.00 0.00 69 1014.6
20260903213819 81 213 0.0 5.0 0.00 0.00 0.00 71 1014.7
20260903213312 81 213 2.0 5.0 0.00 0.00 0.00 71 1014.8
20260903212814 81 206 1.0 2.0 0.00 0.00 0.00 71 1014.8
20260903212339 81 165 0.0 4.0 0.00 0.00 0.00 72 1014.7
20260903211820 82 213 0.0 4.0 0.00 0.00 0.00 72 1014.8
20260903211322 82 200 0.0 2.0 0.00 0.00 0.00 71 1014.8
20260903210815 82 201 0.0 3.0 0.00 0.00 0.00 72 1014.8
20260903210317 82 192 1.0 4.0 0.00 0.00 0.00 71 1014.8
20260903205818 82 225 1.0 4.0 0.00 0.00 0.00 71 1014.9
20260903205343 83 196 1.0 4.0 0.00 0.00 0.00 71 1015.0
20260903204824 82 288 1.0 2.0 0.00 0.00 0.00 72 1015.2
20260903204319 82 253 1.0 2.0 0.00 0.00 0.00 71 1015.0
20260903203820 82 253 1.0 4.0 0.00 0.00 0.00 70 1015.0
20260903203323 83 230 1.0 4.0 0.00 0.00 0.00 69 1014.9
20260903202832 84 210 2.0 4.0 0.00 0.00 0.00 68 1014.7
20260903202314 84 258 1.0 2.0 0.00 0.00 0.00 72 1014.7
20260903201816 82 262 0.0 1.0 0.00 0.00 0.00 76 1014.9
20260903201325 82 240 1.0 1.0 0.00 0.00 0.00 76 1014.9
20260903200826 81 247 1.0 1.0 0.00 0.00 0.00 76 1014.8
20260903200328 81 247 0.0 2.0 0.00 0.00 0.00 79 1014.8
20260903195837 79 237 1.0 2.0 0.00 0.00 0.00 79 1014.9
20260903195318 78 284 0.0 2.0 0.00 0.00 0.00 80 1015.1
20260903194819 77 267 0.0 2.0 0.00 0.00 0.00 80 1015.1
20260903194329 77 360 0.0 1.0 0.00 0.00 0.00 80 1015.1
20260903193830 77 268 0.0 1.0 0.00 0.00 0.00 79 1015.1
20260903193311 77 253 0.0 1.0 0.00 0.00 0.00 79 1015.3
20260903192820 77 253 0.0 1.0 0.00 0.00 0.00 80 1015.7
20260903192323 77 251 0.0 2.0 0.00 0.00 0.00 80 1016.2
20260903191852 76 253 0.0 4.0 0.00 0.00 0.00 80 1016.5
20260903191314 77 216 1.0 4.0 0.00 0.00 0.00 81 1016.4
20260903190815 76 215 3.0 4.0 0.00 0.00 0.00 82 1016.2
20260903190345 75 86 1.0 3.0 0.00 0.00 0.00 82 1015.8
20260903185826 75 103 1.0 4.0 0.00 0.00 0.00 82 1016.2
20260903185335 75 229 2.0 4.0 0.00 0.00 0.00 81 1016.4
20260903184816 76 86 1.0 3.0 0.00 0.00 0.00 80 1016.3
20260903184319 76 211 0.0 3.0 0.00 0.00 0.00 80 1017.1
20260903183827 76 221 1.0 3.0 0.00 0.00 0.00 80 1017.2
20260903183329 76 219 1.0 3.0 0.00 0.00 0.00 79 1017.3
20260903182811 76 219 1.0 3.0 0.00 0.00 0.00 79 1017.3
20260903182312 77 213 1.0 2.0 0.00 0.00 0.00 80 1017.1
20260903181821 77 215 0.0 3.0 0.00 0.00 0.00 79 1016.9
20260903181324 77 211 1.0 3.0 0.00 0.00 0.00 79 1017.1
20260903180832 77 266 0.0 1.0 0.00 0.00 0.00 79 1016.9
20260903180314 77 313 0.0 1.0 0.00 0.00 0.00 78 1017.0
20260903175816 78 313 0.0 1.0 0.00 0.00 0.00 78 1017.3
20260903175318 78 303 0.0 1.0 0.00 0.00 0.00 79 1017.5
20260903174827 77 302 0.0 2.0 0.00 0.00 0.00 79 1017.6
20260903174329 77 302 1.0 2.0 0.00 0.00 0.00 80 1017.5
20260903173836 77 267 1.0 4.0 0.00 0.00 0.00 80 1017.5
20260903173318 77 287 1.0 4.0 0.00 0.00 0.00 79 1017.4
20260903172820 77 293 1.0 2.0 0.00 0.00 0.00 79 1017.5
20260903172322 77 292 1.0 3.0 0.00 0.00 0.00 79 1017.3
20260903171831 77 275 1.0 3.0 0.00 0.00 0.00 79 1017.4
20260903171314 78 261 2.0 3.0 0.00 0.00 0.00 79 1017.3
20260903170814 78 260 2.0 3.0 0.00 0.00 0.00 79 1017.2
20260903170323 78 265 2.0 3.0 0.00 0.00 0.00 79 1017.0
20260903165845 78 265 2.0 3.0 0.00 0.00 0.00 79 1016.8
20260903165333 78 269 2.0 3.0 0.00 0.00 0.00 80 1016.4
20260903164815 78 277 1.0 3.0 0.00 0.00 0.00 80 1016.0
20260903164345 78 360 1.0 3.0 0.00 0.00 0.00 81 1015.6
20260903163825 78 360 2.0 3.0 0.00 0.00 0.00 81 1015.4
20260903163327 78 284 1.0 2.0 0.00 0.00 0.00 82 1015.1
20260903162836 78 306 1.0 3.0 0.00 0.00 0.00 83 1014.7
20260903162317 77 227 1.0 3.0 0.00 0.00 0.00 83 1014.7